[[{"header":{"parameterUnit":"m.s-1","parameterCategory":1,"la1":30.2991,"la2":30.254,"lo1":-89.0895,"lo2":-89.0444,"dy":0.0017,"dx":0.0017,"nx":28,"ny":28,"refTime":"2024-07-19T21:00:00:Z","depth":0,"parameterNumber":2,"parameterNumberName":"U-component_of_WINDS"},"data":[0,0,0,0,0,0,0,0,0,0,0,0,0,0,0,0,0,0,0,0,0,0,0,0,0,0,0,0,0,0,0,0,0,0,0,0,0,0,0,0,0,0,0,0,0,0,0,0,0,0,0,0,0,0,0,0,0,0,1.7285,1.7286,0,1.7363,1.7364,1.7365,1.7407,1.7407,1.7407,1.7407,1.7483,1.7485,1.7486,0,0,0,0,0,0,0,0,0,0,0,0,0,1.7168,1.717,1.7285,1.7286,1.7287,1.7363,1.7364,1.7365,1.7407,1.7407,1.7407,1.7407,1.7482,1.7484,1.7487,0,0,0,0,0,0,0,0,0,0,0,0,0,1.723,1.7171,1.7284,1.7317,1.732,1.7363,1.7364,1.7365,1.7407,1.7407,1.7407,1.7407,1.7481,1.7484,1.7487,1.7502,0,0,1.7496,1.7497,0,0,0,0,0,0,0,0,1.7226,1.7234,1.7311,1.7315,1.7319,1.7375,1.7351,1.7411,1.7407,1.7374,1.7407,1.7407,1.7447,1.7452,1.7467,1.7505,1.7509,1.7496,1.7498,1.7499,1.75,0,0,0,0,0,0,0,1.7222,1.7231,1.7316,1.7312,1.7317,1.7326,1.7335,1.7362,1.7408,1.7377,1.738,1.7389,1.7449,1.7464,1.7469,1.751,1.7496,1.7499,1.75,1.7501,1.7566,1.7566,0,0,0,0,0,0,1.7213,1.7227,1.7313,1.7318,1.7272,1.7328,1.7338,1.7357,1.7408,1.7416,1.7389,1.739,1.7459,1.7465,1.7471,1.7493,1.7499,1.7502,1.7503,1.7566,1.7566,1.7566,0,0,0,0,0,0,1.721,1.722,1.731,1.7273,1.7286,1.733,1.7351,1.7358,1.7373,1.7417,1.7425,1.7396,1.7459,1.7467,1.7495,1.7496,1.7503,1.7506,1.7566,1.7566,1.7566,1.7536,0,0,0,0,0,0,1.7207,1.7219,1.7226,1.7273,1.7287,1.7332,1.7351,1.736,1.7379,1.7382,1.7426,1.7433,1.746,1.749,1.7498,1.7501,1.7508,1.7566,1.7566,1.7566,1.7537,1.7535,1.7533,0,0,0,0,0,1.7202,1.7213,1.7226,1.7236,1.7297,1.7333,1.734,1.7372,1.7379,1.7386,1.7414,1.7432,1.7495,1.7493,1.7501,1.7505,1.7566,1.7566,1.7566,1.7538,1.7536,1.7533,0,0,0,0,0,0,1.7162,1.7219,1.7235,1.7261,1.7292,1.734,1.7349,1.7368,1.7396,1.7398,1.7435,1.7444,1.7468,1.7489,1.7486,1.7523,1.7533,1.7534,1.7508,1.7506,1.7504,1.7498,1.751,0,0,0,0,0,1.7157,1.7182,1.723,1.7249,1.7264,1.7304,1.732,1.7342,1.7375,1.7388,1.7418,1.7448,1.7475,1.7492,1.7519,1.7541,1.7551,1.7548,1.7546,1.7544,1.7545,1.7559,1.7558,1.7566,1.7566,1.7566,0,0,1.7144,1.7179,1.7192,1.7242,1.7268,1.7293,1.7314,1.7339,1.7358,1.7391,1.7419,1.7443,1.7479,1.7504,1.7516,1.7522,1.7545,1.7544,1.7542,1.7544,1.7559,1.7558,1.7558,1.7566,1.7566,1.7566,0,0,1.7136,1.7164,1.7184,1.721,1.7251,1.7278,1.7283,1.7328,1.7346,1.7375,1.7401,1.7423,1.7469,1.7494,1.7512,1.7516,1.7533,1.7523,1.7513,1.7526,1.7526,1.7525,1.7527,1.7527,1.7524,1.7524,1.7524,0,1.7115,1.7155,1.719,1.7215,1.7236,1.727,1.7289,1.7313,1.7359,1.7373,1.7379,1.7438,1.7465,1.7497,1.7498,1.7511,1.7518,1.7518,1.7523,1.7523,1.7523,1.7525,1.7525,1.7522,1.7523,1.7523,1.7523,0,1.7128,1.7155,1.7165,1.7212,1.7234,1.7255,1.7294,1.7312,1.7332,1.7358,1.7388,1.7422,1.7457,1.7466,1.7485,1.7501,1.7504,1.7516,1.7527,1.752,1.7523,1.7524,1.752,1.7521,1.7521,1.7522,0,0,1.7094,1.7162,1.7165,1.7187,1.7236,1.7257,1.728,1.7316,1.7331,1.7363,1.7383,1.7422,1.7434,1.7455,1.7478,1.749,1.7491,1.7501,1.7502,1.7498,1.7511,1.7502,1.7502,1.7504,1.7504,1.7504,1.7508,0,1.7092,1.7137,1.717,1.7202,1.7228,1.7261,1.7282,1.7313,1.7339,1.7364,1.7391,1.7418,1.7432,1.7446,1.7459,1.7488,1.7494,1.7488,1.7522,1.7523,1.7512,1.7503,1.7492,1.7495,1.7509,1.751,1.751,0,1.7095,1.7127,1.7162,1.721,1.7222,1.724,1.7276,1.73,1.7337,1.7354,1.7379,1.7403,1.7429,1.7438,1.7474,1.7469,1.7486,1.7502,1.7503,1.7507,1.7515,1.7506,1.7496,1.7496,1.7511,1.7511,1.7511,0,1.7066,1.7119,1.7147,1.7165,1.7221,1.7233,1.7257,1.7294,1.7314,1.7346,1.736,1.7393,1.7411,1.7437,1.7469,1.7473,1.7502,1.7513,1.7517,1.7516,1.7521,1.752,1.7513,1.7532,1.7532,1.7532,1.7532,0,1.706,1.708,1.7136,1.7153,1.7176,1.7215,1.7237,1.7263,1.7297,1.7319,1.735,1.737,1.7412,1.7437,1.7463,1.7489,1.7497,1.7512,1.7518,1.7509,1.7507,1.7519,1.752,1.7532,1.7532,1.7532,1.7532,0,1.7032,1.707,1.7103,1.7155,1.7168,1.7183,1.7227,1.7244,1.7273,1.7301,1.731,1.7353,1.7385,1.742,1.7463,1.748,1.7505,1.7514,1.7493,1.7496,1.7498,1.7498,1.7498,1.7501,1.7518,1.7518,1.7517,0,1.7025,1.7042,1.7096,1.7114,1.7138,1.7166,1.7188,1.7227,1.7248,1.7293,1.7305,1.7339,1.7369,1.7418,1.7453,1.7486,1.7496,1.7494,1.7501,1.7492,1.7496,1.7495,1.7497,1.7492,1.7491,1.7491,1.7491,0,1.7009,1.7028,1.7058,1.7096,1.7122,1.7153,1.7185,1.7198,1.7244,1.7266,1.73,1.7323,1.7368,1.7402,1.744,1.7463,1.7484,1.7489,1.7492,1.7482,1.7469,1.7476,1.7487,1.7488,1.7489,1.7489,1.7489,1.7489,1.6991,1.7008,1.705,1.7083,1.7112,1.7142,1.7162,1.7194,1.7223,1.7264,1.7286,1.7319,1.7357,1.7411,1.7434,1.7461,1.7467,1.7471,1.7472,1.7472,1.747,1.7465,1.7468,1.7468,1.7468,1.7468,1.7468,0,1.6977,1.7006,1.7036,1.7082,1.7109,1.7129,1.7166,1.7187,1.7217,1.7251,1.7281,1.732,1.7354,1.7392,1.7428,1.7442,1.7453,1.745,1.7449,1.7454,1.7462,1.7456,1.7441,1.7441,1.7441,1.7441,1.7441,1.7441,1.6972,1.7002,1.7026,1.7071,1.71,1.7135,1.7154,1.7182,1.721,1.7254,1.7283,1.7308,1.7345,1.7384,1.7416,1.7426,1.7438,1.7432,1.7445,1.7451,1.7454,1.7456,1.7451,1.7435,1.7435,1.7436,1.7436,1.7436]},{"header":{"parameterUnit":"m.s-1","parameterCategory":1,"la1":30.2991,"la2":30.254,"lo1":-89.0895,"lo2":-89.0444,"dy":0.0017,"dx":0.0017,"nx":28,"ny":28,"refTime":"2024-07-19T21:00:00:Z","depth":0,"parameterNumber":3,"parameterNumberName":"V-component_of_WINDS"},"data":[0,0,0,0,0,0,0,0,0,0,0,0,0,0,0,0,0,0,0,0,0,0,0,0,0,0,0,0,0,0,0,0,0,0,0,0,0,0,0,0,0,0,0,0,0,0,0,0,0,0,0,0,0,0,0,0,0,0,-0.2175,-0.2176,0,-0.2215,-0.2215,-0.2216,-0.2223,-0.2223,-0.2222,-0.2222,-0.2267,-0.2268,-0.227,0,0,0,0,0,0,0,0,0,0,0,0,0,-0.211,-0.2111,-0.2175,-0.2176,-0.2176,-0.2215,-0.2215,-0.2216,-0.2223,-0.2223,-0.2222,-0.2222,-0.2266,-0.2268,-0.227,0,0,0,0,0,0,0,0,0,0,0,0,0,-0.2143,-0.2111,-0.2175,-0.2184,-0.2185,-0.2215,-0.2215,-0.2216,-0.2223,-0.2223,-0.2222,-0.2222,-0.2266,-0.2268,-0.227,-0.2294,0,0,-0.2277,-0.2278,0,0,0,0,0,0,0,0,-0.2141,-0.2145,-0.2182,-0.2184,-0.2185,-0.2213,-0.2209,-0.2242,-0.2223,-0.2209,-0.2222,-0.2221,-0.225,-0.2253,-0.2262,-0.2296,-0.2298,-0.2277,-0.2279,-0.2279,-0.228,0,0,0,0,0,0,0,-0.2138,-0.2143,-0.2191,-0.2183,-0.2185,-0.2188,-0.2192,-0.2215,-0.2232,-0.221,-0.2211,-0.2215,-0.225,-0.226,-0.2263,-0.2299,-0.2277,-0.2279,-0.228,-0.2281,-0.2357,-0.2357,0,0,0,0,0,0,-0.2134,-0.2141,-0.219,-0.2192,-0.2161,-0.2189,-0.2194,-0.2205,-0.2231,-0.2235,-0.2215,-0.2215,-0.2256,-0.226,-0.2265,-0.2295,-0.2279,-0.2282,-0.2283,-0.2356,-0.2357,-0.2357,0,0,0,0,0,0,-0.2133,-0.2138,-0.2188,-0.2167,-0.2174,-0.2191,-0.2203,-0.2206,-0.2215,-0.2235,-0.2239,-0.2222,-0.2256,-0.2261,-0.2287,-0.2297,-0.2283,-0.2285,-0.2355,-0.2356,-0.2357,-0.2356,0,0,0,0,0,0,-0.2131,-0.2138,-0.2146,-0.2167,-0.2175,-0.2208,-0.2204,-0.2207,-0.2219,-0.2219,-0.2242,-0.2246,-0.2256,-0.2283,-0.2289,-0.2299,-0.2286,-0.2354,-0.2356,-0.2357,-0.2355,-0.2356,-0.2358,0,0,0,0,0,-0.2128,-0.2145,-0.2146,-0.2152,-0.2185,-0.2209,-0.2213,-0.2223,-0.2219,-0.2229,-0.2242,-0.2245,-0.2295,-0.2286,-0.2292,-0.2304,-0.2354,-0.2355,-0.2357,-0.2354,-0.2356,-0.2358,0,0,0,0,0,0,-0.2125,-0.2148,-0.215,-0.2173,-0.2189,-0.221,-0.2221,-0.2225,-0.2243,-0.2243,-0.2256,-0.2261,-0.2286,-0.2298,-0.2287,-0.2329,-0.2324,-0.2327,-0.232,-0.2322,-0.2324,-0.232,-0.2288,0,0,0,0,0,-0.2127,-0.2143,-0.2162,-0.2181,-0.2189,-0.2204,-0.2215,-0.2221,-0.2238,-0.2246,-0.2261,-0.2279,-0.2298,-0.2311,-0.233,-0.2357,-0.2363,-0.2368,-0.237,-0.2371,-0.2373,-0.2389,-0.2391,-0.2362,-0.2362,-0.2362,0,0,-0.2132,-0.2146,-0.2155,-0.2181,-0.2194,-0.2211,-0.2209,-0.2228,-0.2242,-0.2249,-0.2273,-0.2285,-0.2306,-0.2332,-0.2345,-0.2343,-0.2382,-0.2373,-0.2373,-0.2375,-0.239,-0.2393,-0.2395,-0.2363,-0.2363,-0.2363,0,0,-0.2148,-0.216,-0.2177,-0.219,-0.221,-0.222,-0.2224,-0.2245,-0.2252,-0.2277,-0.2283,-0.23,-0.2334,-0.2349,-0.2361,-0.2384,-0.2388,-0.239,-0.2398,-0.2413,-0.2415,-0.2417,-0.2426,-0.2429,-0.2392,-0.2392,-0.2392,0,-0.2152,-0.2177,-0.2186,-0.2204,-0.2216,-0.2223,-0.2241,-0.2253,-0.2279,-0.2287,-0.2285,-0.2327,-0.2342,-0.2372,-0.2377,-0.2387,-0.2393,-0.2387,-0.2414,-0.2416,-0.2418,-0.2426,-0.2429,-0.2393,-0.2393,-0.2393,-0.2393,0,-0.218,-0.2197,-0.2209,-0.2232,-0.2245,-0.2263,-0.2277,-0.229,-0.2295,-0.2306,-0.2332,-0.235,-0.2373,-0.2381,-0.2387,-0.2412,-0.241,-0.2411,-0.2406,-0.2421,-0.2429,-0.2432,-0.2393,-0.2393,-0.2393,-0.2393,0,0,-0.2195,-0.2223,-0.2227,-0.2238,-0.226,-0.2274,-0.2294,-0.2315,-0.2326,-0.2344,-0.2361,-0.2389,-0.239,-0.2404,-0.2412,-0.2425,-0.2443,-0.2424,-0.2425,-0.2427,-0.2472,-0.2471,-0.2475,-0.2446,-0.2447,-0.2447,-0.247,0,-0.2214,-0.2246,-0.2256,-0.2284,-0.2301,-0.2308,-0.2325,-0.2341,-0.2352,-0.237,-0.2383,-0.2403,-0.2402,-0.241,-0.2423,-0.2438,-0.2452,-0.2436,-0.2463,-0.2464,-0.2457,-0.2479,-0.2478,-0.2499,-0.2474,-0.2474,-0.2475,0,-0.224,-0.2257,-0.2286,-0.2307,-0.2314,-0.2329,-0.235,-0.2366,-0.2385,-0.2392,-0.2408,-0.2415,-0.2437,-0.2432,-0.2463,-0.2452,-0.2464,-0.2473,-0.2474,-0.2476,-0.247,-0.2482,-0.2506,-0.2509,-0.248,-0.2479,-0.2479,0,-0.2248,-0.2278,-0.2299,-0.2308,-0.2333,-0.2343,-0.2354,-0.2373,-0.2386,-0.2405,-0.2413,-0.2435,-0.2447,-0.2465,-0.2479,-0.2473,-0.2509,-0.2504,-0.2516,-0.2516,-0.2523,-0.2522,-0.2549,-0.2531,-0.2531,-0.2531,-0.2531,0,-0.2268,-0.2285,-0.2303,-0.2316,-0.2337,-0.2349,-0.2369,-0.2381,-0.2398,-0.2415,-0.2423,-0.2439,-0.2456,-0.2475,-0.2486,-0.251,-0.2516,-0.2523,-0.2526,-0.2522,-0.2521,-0.253,-0.2528,-0.2532,-0.2532,-0.2531,-0.2531,0,-0.2279,-0.2292,-0.2315,-0.2337,-0.2343,-0.2357,-0.2376,-0.239,-0.2401,-0.2423,-0.2428,-0.2447,-0.247,-0.2485,-0.2515,-0.2522,-0.2549,-0.2551,-0.2541,-0.2543,-0.2553,-0.2552,-0.2586,-0.2591,-0.257,-0.2571,-0.2571,0,-0.2291,-0.2304,-0.2327,-0.2338,-0.2348,-0.2366,-0.2379,-0.2392,-0.2405,-0.2429,-0.244,-0.2463,-0.2482,-0.2518,-0.2535,-0.2558,-0.2561,-0.2572,-0.2565,-0.2561,-0.2561,-0.256,-0.2562,-0.2572,-0.2573,-0.2573,-0.2573,0,-0.231,-0.2315,-0.2332,-0.2352,-0.2366,-0.2383,-0.2399,-0.2409,-0.2425,-0.244,-0.2462,-0.2476,-0.2506,-0.2529,-0.2554,-0.2567,-0.2573,-0.2575,-0.2579,-0.2575,-0.2568,-0.2572,-0.2544,-0.2574,-0.2574,-0.2574,-0.2574,-0.2574,-0.2321,-0.2334,-0.2351,-0.2371,-0.2384,-0.24,-0.2414,-0.2427,-0.2445,-0.2469,-0.2477,-0.25,-0.2521,-0.2554,-0.2568,-0.2588,-0.2587,-0.2593,-0.2594,-0.2595,-0.2595,-0.2566,-0.2593,-0.2593,-0.2593,-0.2593,-0.2593,0,-0.2341,-0.2352,-0.237,-0.2392,-0.2408,-0.2411,-0.243,-0.2443,-0.2463,-0.2481,-0.2499,-0.2526,-0.2548,-0.2567,-0.2591,-0.2603,-0.2607,-0.2609,-0.2608,-0.2611,-0.2594,-0.2588,-0.2606,-0.2606,-0.2606,-0.2606,-0.2606,-0.2606,-0.2352,-0.2373,-0.2381,-0.241,-0.2423,-0.2444,-0.2455,-0.247,-0.2484,-0.2513,-0.2531,-0.2543,-0.2562,-0.2588,-0.2609,-0.2614,-0.2623,-0.2624,-0.263,-0.2614,-0.2612,-0.2611,-0.2605,-0.2626,-0.2626,-0.2645,-0.2646,-0.2646]}]]